Simultaneous Nadir Overpasses (SNOs) Predictions

Prediction of SNOs between AQUA and METOP-B Satellite Orbit:

Table of predicted SNOs for the next 14.0 days since TLE Epoch: 2/19/2022
Index Date (AQUA) Time (AQUA) Lat,Lon (AQUA) SZA (AQUA ) Date (METOP-B) Time (METOP-B) Lat,Lon (METOP-B) SZA (METOP-B ) Distance(km) Time Diff (sec)
1 02/19/2022 19:19:42 73.87,-115.59 85.05 02/19/2022 19:19:07 73.86,-115.52 85.05 2.44 35
2 02/19/2022 20:09:08 -73.90, 51.99 94.94 02/19/2022 20:09:48 -73.92, 51.94 94.92 2.65 40
3 02/22/2022 14:04:10 -73.14, 144.80 96.76 02/22/2022 14:03:05 -73.07, 141.77 96.66 98.09 65
4 02/22/2022 14:53:51 73.84, -49.06 84.00 02/22/2022 14:53:29 73.84, -49.16 84.01 3.04 22
5 02/22/2022 15:43:18 -73.92, 118.40 95.93 02/22/2022 15:44:09 -73.95, 118.43 95.91 3.55 51
6 02/25/2022 09:38:27 -73.59,-149.69 97.30 02/25/2022 09:37:16 -73.56,-150.76 97.28 33.96 71
7 02/25/2022 10:28:00 73.88, 17.31 83.00 02/25/2022 10:27:49 73.87, 17.31 82.99 1.76 11
8 02/25/2022 11:17:27 -73.96,-175.22 96.93 02/25/2022 11:18:30 -73.93,-175.22 96.97 3.27 63
9 02/28/2022 05:12:40 -73.81, -83.68 98.13 02/28/2022 05:11:32 -73.83, -83.71 98.10 2.62 68
10 02/28/2022 06:02:09 73.89, 83.77 81.95 02/28/2022 06:02:10 73.89, 83.77 81.95 0.13 1
11 02/28/2022 06:51:37 -74.02,-108.87 97.93 02/28/2022 06:52:50 -74.00,-108.63 97.97 7.62 73
12 03/03/2022 00:46:49 -73.83, -17.26 99.19 03/03/2022 00:45:53 -73.85, -17.26 99.16 2.06 56
13 03/03/2022 01:36:18 73.92, 150.18 80.90 03/03/2022 01:36:31 73.91, 150.22 80.89 1.48 13



Historial Predications of SNOs between AQUA and METOP-B
